Regional Weather Roundup
Issued by NWS

Home | Current Version | Previous Version | Graphics & Text | Print | Product List | Glossary On
Versions: 1 2 3 4 5 6 7 8 9 10 11 12 13 14 15 16 17 18 19 20 21 22 23 24 25 26 27 28 29 30 31 32 33 34 35 36 37 38 39 40 41 42 43 44 45 46 47 48 49 50
000
ASUS43 KBIS 211320
RWRND

NORTH DAKOTA REGIONAL WEATHER ROUNDUP
NATIONAL WEATHER SERVICE BISMARCK ND
800 AM CDT THU AUG 21 2014

NOTE: "FAIR" INDICATES FEW OR NO CLOUDS BELOW 12,000 FEET WITH NO
SIGNIFICANT WEATHER AND/OR OBSTRUCTIONS TO VISIBILITY.


NDZ001>003-009>011-017-211400-
NORTHWEST NORTH DAKOTA

CITY           SKY/WX    TMP DP  RH WIND       PRES   REMARKS
WILLISTON      CLEAR     58  57  97 SE5       29.89R FOG
MINOT          SUNNY     64  62  93 NW6       29.81R
MINOT AFB      SUNNY     62  62 100 NW10      29.81R
$$

NDZ018>021-031>035-040>046-211400-
SOUTHWEST NORTH DAKOTA

CITY           SKY/WX    TMP DP  RH WIND       PRES   REMARKS
BISMARCK       CLOUDY    66  64  93 N8        29.82R
DICKINSON      CLEAR     57  55  93 W7        29.88R
GARRISON         N/A     65  64  97 N7        29.82R
HETTINGER ARPT PTCLDY    57  54  89 NW6       29.89S
$$

NDZ004>008-012>016-024-026-027-054-211400-
NORTHEAST NORTH DAKOTA

CITY           SKY/WX    TMP DP  RH WIND       PRES   REMARKS
GRAND FORKS    CLOUDY    69  65  86 SE6       29.77R
GRND FRKS AFB  CLOUDY    69  69  99 E3        29.78S
DEVILS LAKE    CLOUDY    70  63  78 E8        29.75S
$$

NDZ022-023-025-028>030-036>039-047>053-211400-
SOUTHEAST NORTH DAKOTA

CITY           SKY/WX    TMP DP  RH WIND       PRES   REMARKS
FARGO          CLOUDY    71  68  90 SE5       29.74S
JAMESTOWN      PTSUNNY   70  67  90 CALM      29.75R
$$



USA.gov is the U.S. government's official web portal to all federal, state and local government web resources and services.